• In Uzbekistan
  • List of Countries
  • For 7 days
  • Water Temperature
  • Satellite Maps
  • Weather Map
  • Weather Widgets
  • user-avatar
    Login

    Hourly Weather Cordeiropolis

    Today, 22 June, Friday

    Time Temperature Precipitation Wind Pressure Humidity
    00:00 +18°C° 0 mm 0 mps 709 mmHg 69%
    01:00 +20°C° 0 mm 1 mps 709 mmHg 71%
    02:00 +19°C° 0 mm 1 mps 708 mmHg 74%
    03:00 +19°C° 0 mm 1 mps 708 mmHg 74%
    04:00 +19°C° 0 mm 1 mps 708 mmHg 76%
    05:00 +18°C° 0 mm 1 mps 708 mmHg 77%
    06:00 +18°C° 0 mm 1 mps 708 mmHg 79%
    07:00 +19°C° 0 mm 1 mps 708 mmHg 76%
    08:00 +20°C° 0 mm 1 mps 709 mmHg 72%
    09:00 +21°C° 0 mm 2 mps 709 mmHg 69%
    10:00 +23°C° 0 mm 1 mps 709 mmHg 63%
    11:00 +25°C° 0 mm 1 mps 709 mmHg 57%
    12:00 +27°C° 0 mm 1 mps 709 mmHg 50%
    13:00 +27°C° 0 mm 1 mps 709 mmHg 48%
    14:00 +27°C° 0 mm 1 mps 708 mmHg 46%
    15:00 +27°C° 0 mm 1 mps 708 mmHg 44%
    16:00 +26°C° 0 mm 1 mps 708 mmHg 49%
    17:00 +22°C° 0 mm 0 mps 707 mmHg 53%
    18:00 +20°C° 0 mm 0 mps 707 mmHg 57%
    19:00 +20°C° 0 mm 0 mps 707 mmHg 59%
    20:00 +20°C° 0 mm 0 mps 708 mmHg 60%
    21:00 +21°C° 0 mm 1 mps 708 mmHg 62%
    22:00 +21°C° 0 mm 1 mps 708 mmHg 63%
    23:00 +20°C° 0 mm 1 mps 708 mmHg 65%

    Tomorrow, 23 June, Saturday

    Time Temperature Precipitation Wind Pressure Humidity
    00:00 +20°C° 0 mm 1 mps 708 mmHg 67%
    01:00 +19°C° 0 mm 1 mps 708 mmHg 69%
    02:00 +18°C° 0 mm 1 mps 707 mmHg 71%
    03:00 +18°C° 0 mm 1 mps 707 mmHg 74%
    04:00 +16°C° 0 mm 1 mps 707 mmHg 75%
    05:00 +16°C° 0 mm 1 mps 707 mmHg 77%
    06:00 +16°C° 0 mm 1 mps 707 mmHg 78%
    07:00 +17°C° 0 mm 2 mps 708 mmHg 74%
    08:00 +19°C° 0 mm 2 mps 708 mmHg 71%
    09:00 +20°C° 0 mm 2 mps 709 mmHg 67%
    10:00 +22°C° 0 mm 3 mps 709 mmHg 61%
    11:00 +25°C° 0 mm 3 mps 709 mmHg 56%
    12:00 +26°C° 0 mm 3 mps 709 mmHg 50%
    13:00 +27°C° 0 mm 3 mps 708 mmHg 48%
    14:00 +27°C° 0 mm 3 mps 708 mmHg 47%
    15:00 +27°C° 0 mm 3 mps 707 mmHg 45%
    16:00 +26°C° 0 mm 2 mps 707 mmHg 50%
    17:00 +24°C° 0 mm 2 mps 707 mmHg 55%
    18:00 +22°C° 0 mm 1 mps 707 mmHg 60%
    19:00 +22°C° 0 mm 1 mps 707 mmHg 62%
    20:00 +21°C° 0 mm 1 mps 708 mmHg 64%
    21:00 +20°C° 0 mm 2 mps 708 mmHg 65%
    22:00 +19°C° 0 mm 2 mps 708 mmHg 68%
    23:00 +20°C° 0 mm 1 mps 709 mmHg 70%

    Day after tomorrow, 24 June, Sunday

    Time Temperature Precipitation Wind Pressure Humidity
    00:00 +19°C° 0 mm 1 mps 709 mmHg 72%
    01:00 +19°C° 0 mm 1 mps 708 mmHg 73%
    02:00 +19°C° 0 mm 1 mps 708 mmHg 74%
    03:00 +19°C° 0 mm 1 mps 708 mmHg 75%
    04:00 +18°C° 0 mm 1 mps 708 mmHg 76%
    05:00 +18°C° 0 mm 1 mps 708 mmHg 78%
    06:00 +18°C° 0 mm 1 mps 708 mmHg 79%
    07:00 +19°C° 0 mm 1 mps 709 mmHg 75%
    08:00 +21°C° 0 mm 1 mps 709 mmHg 72%
    09:00 +22°C° 0 mm 1 mps 710 mmHg 68%
    10:00 +24°C° 0 mm 1 mps 710 mmHg 61%
    11:00 +26°C° 0 mm 1 mps 710 mmHg 54%
    12:00 +27°C° 0 mm 1 mps 710 mmHg 47%
    13:00 +28°C° 0 mm 1 mps 709 mmHg 45%
    14:00 +28°C° 0 mm 1 mps 709 mmHg 44%
    15:00 +28°C° 0 mm 1 mps 708 mmHg 42%
    16:00 +26°C° 0 mm 1 mps 708 mmHg 46%
    17:00 +23°C° 0 mm 0 mps 708 mmHg 50%
    18:00 +21°C° 0 mm 0 mps 708 mmHg 53%
    19:00 +22°C° 0 mm 1 mps 708 mmHg 55%
    20:00 +22°C° 0 mm 1 mps 708 mmHg 57%
    21:00 +21°C° 0 mm 1 mps 709 mmHg 59%
    22:00 +20°C° 0 mm 2 mps 709 mmHg 62%
    23:00 +19°C° 0 mm 2 mps 709 mmHg 66%

    25 June, Monday

    Time Temperature Precipitation Wind Pressure Humidity
    00:00 +18°C° 0 mm 2 mps 709 mmHg 69%
    01:00 +18°C° 0 mm 2 mps 708 mmHg 71%
    02:00 +18°C° 0 mm 1 mps 708 mmHg 73%
    03:00 +18°C° 0 mm 1 mps 708 mmHg 75%
    04:00 +18°C° 0 mm 1 mps 708 mmHg 76%
    05:00 +16°C° 0 mm 1 mps 707 mmHg 77%
    06:00 +16°C° 0 mm 1 mps 707 mmHg 79%
    07:00 +17°C° 0 mm 2 mps 708 mmHg 74%
    08:00 +19°C° 0 mm 2 mps 709 mmHg 70%
    09:00 +20°C° 0 mm 2 mps 709 mmHg 66%
    10:00 +23°C° 0 mm 2 mps 709 mmHg 59%
    11:00 +25°C° 0 mm 3 mps 709 mmHg 52%
    12:00 +27°C° 0 mm 3 mps 709 mmHg 46%
    13:00 +27°C° 0 mm 3 mps 708 mmHg 45%
    14:00 +27°C° 0 mm 3 mps 708 mmHg 44%
    15:00 +27°C° 0 mm 3 mps 707 mmHg 44%
    16:00 +26°C° 0 mm 2 mps 707 mmHg 49%
    17:00 +24°C° 0 mm 2 mps 707 mmHg 54%
    18:00 +23°C° 0 mm 1 mps 707 mmHg 58%
    19:00 +22°C° 0 mm 1 mps 707 mmHg 61%
    20:00 +21°C° 0 mm 1 mps 707 mmHg 64%
    21:00 +21°C° 0 mm 1 mps 708 mmHg 67%
    22:00 +20°C° 0 mm 1 mps 708 mmHg 69%
    23:00 +19°C° 0 mm 1 mps 707 mmHg 72%

    26 June, Tuesday

    Time Temperature Precipitation Wind Pressure Humidity
    00:00 +19°C° 0 mm 1 mps 707 mmHg 75%
    01:00 +18°C° 0 mm 1 mps 707 mmHg 76%
    02:00 +18°C° 0 mm 1 mps 707 mmHg 78%
    03:00 +18°C° 0 mm 1 mps 706 mmHg 80%
    04:00 +18°C° 0 mm 1 mps 707 mmHg 81%
    05:00 +16°C° 0 mm 1 mps 707 mmHg 82%
    06:00 +16°C° 0 mm 2 mps 707 mmHg 83%
    07:00 +18°C° 0 mm 2 mps 707 mmHg 79%
    08:00 +19°C° 0 mm 2 mps 708 mmHg 74%
    09:00 +21°C° 0 mm 2 mps 708 mmHg 69%
    10:00 +24°C° 0 mm 2 mps 708 mmHg 62%
    11:00 +26°C° 0 mm 3 mps 708 mmHg 54%
    12:00 +27°C° 0 mm 3 mps 708 mmHg 46%
    13:00 +28°C° 0 mm 3 mps 707 mmHg 45%
    14:00 +28°C° 0 mm 2 mps 707 mmHg 44%
    15:00 +28°C° 0 mm 2 mps 707 mmHg 42%
    16:00 +26°C° 0 mm 2 mps 707 mmHg 48%
    17:00 +24°C° 0 mm 1 mps 706 mmHg 53%
    18:00 +23°C° 0 mm 1 mps 706 mmHg 58%
    19:00 +22°C° 0 mm 1 mps 707 mmHg 60%
    20:00 +21°C° 0 mm 1 mps 707 mmHg 62%
    21:00 +21°C° 0 mm 1 mps 707 mmHg 64%
    22:00 +20°C° 0 mm 1 mps 707 mmHg 65%
    23:00 +20°C° 0 mm 1 mps 707 mmHg 67%

    27 June, Wednesday

    Time Temperature Precipitation Wind Pressure Humidity
    00:00 +19°C° 0 mm 1 mps 707 mmHg 69%
    01:00 +19°C° 0 mm 1 mps 707 mmHg 71%
    02:00 +19°C° 0 mm 1 mps 706 mmHg 72%
    03:00 +18°C° 0 mm 1 mps 706 mmHg 73%
    04:00 +18°C° 0 mm 1 mps 706 mmHg 74%
    05:00 +18°C° 0 mm 1 mps 707 mmHg 75%
    06:00 +16°C° 0 mm 1 mps 707 mmHg 76%
    07:00 +18°C° 0 mm 2 mps 707 mmHg 72%
    08:00 +19°C° 0 mm 2 mps 708 mmHg 68%
    09:00 +21°C° 0 mm 2 mps 709 mmHg 65%
    10:00 +24°C° 0 mm 2 mps 709 mmHg 59%
    11:00 +25°C° 0 mm 2 mps 709 mmHg 53%
    12:00 +27°C° 0 mm 2 mps 709 mmHg 47%
    13:00 +28°C° 0 mm 2 mps 708 mmHg 45%
    14:00 +28°C° 0 mm 2 mps 708 mmHg 44%
    15:00 +28°C° 0 mm 1 mps 707 mmHg 42%
    16:00 +26°C° 0 mm 1 mps 707 mmHg 48%
    17:00 +25°C° 0 mm 1 mps 707 mmHg 53%
    18:00 +23°C° 0 mm 1 mps 707 mmHg 58%
    19:00 +22°C° 0 mm 1 mps 707 mmHg 60%
    20:00 +21°C° 0 mm 1 mps 708 mmHg 63%
    21:00 +21°C° 0 mm 1 mps 708 mmHg 65%
    22:00 +20°C° 0 mm 1 mps 708 mmHg 68%
    23:00 +20°C° 0 mm 1 mps 708 mmHg 70%
    Show more